Theta_e
310 311 311 312 312 312 313 313 313 313 313 309 304 305 301 302 298 305 309 312 311 304 297 299 297 296 297 300 298 298 296 295 295 295 296 295 297 295 295 294 292 292 292 291 290 292 288 289 288 286 287 288 290 291 292 292 292 291 289 290 290 292 286 284 284 282 283 285 285 286 286 288 286 285 281 282 283 284 284 283 278 277 274 275 273 276 280
309 309 310 310 310 311 311 312 313 312 311 307 305 303 299 299 298 301 308 311 309 301 292 292 294 296 296 299 297 298 297 296 294 295 296 295 295 294 293 294 296 294 294 292 291 293 287 290 290 288 287 288 292 292 293 294 292 293 291 290 293 286 286 286 279 279 279 280 283 285 284 284 281 280 281 280 280 277 276 274 274 277 277 280 276 275 280
308 307 308 308 308 309 309 311 311 309 306 306 305 299 299 298 299 299 303 308 305 295 298 295 294 295 294 295 294 294 295 297 299 297 296 296 295 294 293 296 295 293 294 293 293 293 292 288 290 290 286 289 288 290 291 293 293 291 291 295 294 289 285 284 280 278 276 275 276 273 278 282 280 281 280 281 283 280 279 277 276 277 280 282 279 280 283
307 307 307 307 307 307 308 307 306 306 305 304 303 300 298 294 288 295 297 302 301 300 299 297 294 292 293 293 294 296 293 296 297 299 297 299 296 297 294 294 297 292 292 289 290 291 292 291 286 286 285 286 287 287 286 289 289 289 294 291 291 285 284 285 285 283 281 282 276 278 281 279 279 279 279 282 280 280 281 277 275 278 280 280 283 283 279
306 306 306 306 306 306 305 305 304 303 303 303 299 296 297 296 289 290 288 297 297 296 299 295 296 291 296 289 294 292 294 295 294 299 293 298 297 294 295 293 292 290 291 290 290 291 290 289 287 285 283 285 285 287 286 286 289 293 291 289 286 283 285 285 285 285 286 284 282 281 284 282 282 281 281 280 278 277 280 279 277 282 279 276 284 279 279
306 305 305 305 304 304 304 304 303 302 302 302 300 294 295 289 291 294 296 291 288 291 292 297 295 295 296 291 295 293 293 293 291 295 297 296 298 294 292 293 295 293 292 291 287 288 288 288 286 286 285 285 288 287 287 286 289 289 288 287 289 285 285 287 285 284 285 281 283 282 282 282 282 282 283 282 280 277 278 277 282 279 279 278 281 279 277
305 304 304 304 304 303 303 303 302 302 301 301 297 293 293 293 290 292 295 291 292 293 293 296 295 294 294 292 294 291 292 292 295 292 291 293 292 296 289 291 294 293 293 291 289 289 285 286 289 288 287 287 286 285 286 287 285 285 286 286 284 287 282 282 283 283 283 282 281 281 281 280 280 281 281 281 280 280 281 281 281 279 278 280 281 278 278
305 304 304 304 304 303 302 302 301 301 301 300 295 292 292 289 290 288 292 291 288 290 293 294 294 291 294 288 291 292 292 291 294 292 293 288 291 295 292 293 294 294 292 292 289 291 291 289 286 288 288 287 288 288 288 284 284 284 286 286 286 288 281 283 280 279 277 278 279 280 280 280 280 282 281 280 278 279 280 280 278 277 276 278 278 277 277
305 304 304 304 303 303 302 301 301 300 301 295 293 291 291 291 291 293 290 287 288 289 290 292 292 290 292 289 290 291 292 291 294 292 295 294 290 292 292 294 290 289 291 291 292 295 292 289 290 291 291 288 291 289 286 287 284 283 283 283 283 286 280 281 279 278 275 275 276 278 275 276 275 275 277 276 276 276 278 275 278 277 276 277 275 271 275
305 305 304 303 303 303 303 302 301 300 301 293 292 288 293 290 291 291 291 286 291 288 288 289 290 286 291 292 292 291 291 293 293 289 294 294 294 295 295 295 293 287 290 290 293 296 294 294 288 287 287 287 285 286 286 289 288 285 286 284 283 284 280 277 276 276 275 275 274 274 273 275 274 276 278 277 278 280 278 277 278 279 280 275 273 275 280
305 305 304 304 303 303 303 303 301 300 296 290 289 288 289 288 287 288 289 286 285 288 288 288 288 290 292 293 292 293 292 292 293 289 287 290 290 289 294 294 292 289 289 291 290 289 287 287 286 287 287 287 286 286 288 287 287 287 285 280 279 282 282 279 280 276 272 272 272 273 272 268 273 278 280 280 277 277 275 277 278 278 279 276 278 278 276
306 305 305 304 304 303 303 303 302 300 298 292 292 289 290 291 289 288 286 284 285 287 288 286 288 290 290 292 292 291 291 292 292 294 291 287 288 287 291 291 292 288 288 288 289 288 288 288 288 287 285 284 285 285 286 287 285 287 287 285 279 281 281 278 278 274 270 271 272 271 268 272 278 275 276 277 277 277 277 278 277 276 275 277 276 277 276
306 306 305 304 304 304 303 303 303 301 298 292 291 288 290 291 289 286 285 285 284 284 285 287 290 290 289 290 290 291 293 292 292 292 290 289 285 285 287 288 290 290 289 287 288 288 284 280 280 281 281 280 281 283 282 284 284 284 283 284 283 279 279 277 275 274 271 270 273 269 270 278 276 276 276 276 275 276 275 273 276 276 276 277 276 278 279
307 306 305 305 305 304 304 303 303 303 300 295 290 289 289 289 287 285 284 283 284 285 285 286 285 285 286 287 288 286 287 286 285 287 288 286 287 286 285 286 287 289 288 289 287 285 281 281 278 280 280 279 279 279 279 281 282 283 283 282 283 283 279 278 275 278 271 272 271 274 275 276 279 278 272 275 273 273 273 269 273 277 275 276 276 277 278
306 306 306 305 305 304 304 304 304 303 301 298 291 289 288 288 287 285 284 283 280 282 283 282 285 286 286 286 287 286 285 284 286 284 282 283 282 283 284 284 284 287 286 286 282 283 282 278 273 275 272 273 272 275 276 275 276 278 279 280 281 282 280 278 277 273 276 269 270 268 267 269 275 281 277 279 278 276 276 272 268 274 268 275 276 276 277
305 305 305 305 305 304 304 304 303 303 302 299 292 289 289 289 288 286 283 281 280 278 281 285 283 283 284 284 286 288 286 285 285 283 281 281 282 283 283 281 282 283 283 282 281 281 279 279 273 275 270 273 274 272 271 273 271 275 279 280 280 280 281 280 280 275 271 269 270 270 269 272 279 275 275 274 273 275 272 269 266 272 270 274 277 275 271
304 304 305 305 304 304 304 304 304 303 303 299 291 290 288 291 288 285 283 281 281 279 282 280 283 282 281 281 283 284 286 285 285 281 280 281 281 279 283 283 283 284 283 282 279 277 274 269 270 270 269 272 270 271 270 268 269 269 277 278 278 277 275 276 275 273 274 273 270 269 271 272 273 269 271 274 274 276 274 261 261 266 271 270 274 275 273
303 304 304 305 305 304 304 304 304 303 302 301 294 290 289 291 289 288 284 281 279 279 282 281 282 281 281 282 280 281 281 280 280 281 281 280 278 279 281 282 282 285 285 282 279 277 273 270 274 271 274 276 274 274 268 271 263 267 269 273 271 274 272 275 272 274 275 275 270 268 269 272 269 272 273 274 274 273 263 265 267 269 271 272 274 275 275
303 303 303 303 304 304 304 304 304 303 303 302 296 292 290 291 289 289 284 283 279 276 281 281 283 282 282 283 280 281 281 283 283 280 277 280 280 279 279 278 283 279 280 278 278 275 277 273 274 270 272 272 273 270 272 267 266 272 272 269 270 271 273 271 272 270 271 271 270 269 270 271 270 271 276 276 273 263 267 272 271 273 272 273 275 275 274
303 303 303 303 303 303 303 303 303 303 303 303 298 291 292 292 291 291 287 280 279 277 279 280 281 281 282 282 279 279 279 281 280 281 280 278 279 282 282 277 281 276 274 280 276 276 275 273 275 268 266 270 269 270 259 259 271 268 269 269 269 271 271 268 271 273 271 270 267 266 263 274 276 275 273 274 268 269 274 271 273 273 274 274 273 275 275
303 303 302 302 302 303 303 303 303 303 303 303 300 293 291 293 292 292 290 286 281 275 277 281 282 282 281 281 282 283 281 280 280 279 280 278 282 284 276 278 281 278 276 279 276 276 273 268 265 265 268 272 270 268 264 265 266 269 270 267 266 272 266 263 270 276 265 269 267 267 274 275 278 278 273 273 278 276 274 275 272 273 273 274 274 275 275
302 302 302 302 302 302 302 302 303 302 302 302 300 295 290 293 293 293 290 288 282 277 275 284 283 281 283 285 285 283 283 282 283 282 279 278 278 280 278 281 281 276 274 272 270 267 267 263 263 263 267 264 263 266 261 263 262 264 264 267 265 275 271 271 268 271 270 268 274 275 275 277 279 280 278 279 281 277 274 277 276 275 274 273 274 276 275
301 302 302 302 302 302 302 302 302 302 302 302 300 294 291 292 291 293 290 286 286 288 286 282 284 284 287 286 285 285 284 284 283 280 282 281 276 276 273 277 278 279 274 277 279 275 272 268 268 267 261 264 271 264 263 264 262 262 267 271 272 271 274 272 269 268 272 273 275 273 272 275 277 279 278 278 278 278 275 275 275 275 276 275 275 276 275
302 302 302 302 303 302 302 303 302 302 302 303 300 295 293 293 292 290 288 288 285 281 283 283 281 278 282 282 286 286 284 283 285 282 283 286 279 271 276 277 279 277 271 276 277 274 268 262 265 264 265 268 266 261 267 265 265 264 264 266 270 271 272 270 270 270 269 267 273 273 274 273 276 278 279 276 276 277 276 276 277 278 276 275 276 277 277
302 301 302 302 302 301 301 302 302 301 303 302 300 298 294 291 292 290 287 282 282 282 277 281 283 286 286 286 285 283 285 286 287 283 283 283 284 281 279 279 280 279 278 278 277 274 265 268 268 265 267 269 274 264 267 268 265 271 262 267 268 270 274 271 272 270 271 270 272 273 274 273 275 277 277 278 279 276 274 277 278 278 276 275 276 275 274
302 301 301 301 301 301 301 301 301 302 302 301 299 295 293 292 293 292 289 289 287 284 279 277 279 285 284 284 284 286 286 287 285 284 283 282 282 284 282 280 278 279 278 279 278 276 266 264 259 258 266 268 274 262 262 272 267 271 270 271 274 272 274 263 270 272 273 274 273 272 273 274 275 275 275 278 278 277 276 276 276 275 275 275 275 274 276
301 300 300 301 301 301 302 302 301 302 301 301 298 296 295 294 294 292 289 288 284 279 282 278 283 283 283 283 285 284 284 286 285 284 282 282 281 281 281 280 279 278 278 275 274 269 260 260 266 269 264 263 269 265 268 268 271 266 265 273 274 272 271 271 270 266 265 268 273 274 267 269 275 276 278 277 277 276 276 275 273 273 274 274 274 275 275
299 300 301 300 300 300 301 300 300 301 302 301 299 296 296 294 294 294 294 291 287 279 278 278 280 282 283 279 284 286 287 286 286 284 283 281 280 281 280 280 278 277 275 276 271 270 268 270 270 268 266 265 270 268 273 272 271 266 267 272 275 274 275 273 271 271 268 273 275 276 278 277 277 279 279 278 277 276 275 275 276 276 276 276 275 275 275
301 300 300 300 300 300 300 301 301 302 301 299 295 293 292 295 295 295 293 293 288 284 279 278 277 274 277 280 284 283 284 286 284 284 283 281 281 281 281 280 279 279 278 274 274 271 267 271 275 270 266 273 268 261 269 265 266 268 273 277 275 277 277 276 277 275 274 276 277 277 276 276 278 279 278 276 276 276 276 277 277 277 277 276 275 275 275
300 300 299 300 300 300 300 300 300 300 300 295 289 287 285 286 294 295 296 294 291 287 283 280 276 278 279 278 277 281 282 283 283 283 283 281 281 280 280 280 279 282 277 276 276 271 274 271 275 275 274 278 272 266 267 264 266 272 277 278 278 278 278 278 277 276 276 278 276 276 277 278 279 279 277 277 276 276 276 276 276 276 275 274 274 275 274
300 300 300 300 300 300 300 300 300 300 299 291 288 282 281 280 286 296 297 294 293 289 284 285 280 284 278 279 278 281 282 282 281 282 282 282 282 282 281 281 277 281 275 275 275 275 275 269 274 273 277 279 278 268 268 269 268 271 277 278 278 278 278 278 278 277 278 278 276 275 275 277 278 276 275 276 275 274 274 273 273 274 275 273 274 274 275
299 300 299 300 300 300 300 300 300 298 293 289 287 284 281 283 286 294 297 295 293 287 283 279 279 279 277 281 279 281 282 282 282 281 281 282 280 281 279 282 278 281 281 275 274 275 274 277 274 274 276 281 278 267 272 270 271 273 278 279 279 279 280 277 277 276 277 278 275 273 274 276 276 276 278 280 279 274 273 275 274 273 274 275 274 272 271
298 299 299 299 300 299 300 300 298 297 291 293 295 294 295 296 296 297 297 294 290 285 286 281 276 279 276 276 275 274 280 280 278 281 278 282 279 280 275 281 278 279 287 281 277 276 278 278 277 275 276 279 273 275 275 273 275 279 279 280 280 279 277 276 276 278 278 278 278 276 275 277 278 278 278 279 279 276 272 273 274 272 269 268 270 271 270
297 298 298 298 298 298 298 298 298 298 296 290 285 286 290 296 295 297 294 290 286 285 285 280 277 276 274 272 267 272 283 280 280 282 276 282 279 280 276 280 279 278 281 280 280 280 276 278 276 275 278 274 277 273 272 275 279 279 280 280 281 280 278 276 275 276 277 278 278 279 280 281 280 276 273 275 276 275 273 273 270 271 271 270 271 272 272
297 297 297 297 297 298 298 297 293 288 285 286 285 288 293 295 296 296 293 287 282 280 280 278 280 275 273 267 268 271 280 280 278 281 278 280 285 280 282 278 280 277 278 285 278 280 278 279 280 275 273 279 275 272 274 277 278 280 280 280 280 280 277 277 277 278 279 276 275 277 278 277 276 276 276 275 274 272 271 271 271 272 272 272 272 271 268
296 296 297 297 296 294 290 291 288 286 284 284 285 293 297 296 296 293 291 287 285 280 278 277 279 275 277 272 269 268 283 278 282 282 281 280 279 282 281 280 275 279 283 280 275 280 277 282 278 272 279 273 272 276 277 279 278 279 280 280 280 280 280 280 280 281 279 274 274 275 275 275 275 276 277 276 275 273 271 272 268 265 270 272 272 271 268
296 296 297 295 290 286 285 285 289 286 285 290 293 296 296 293 289 289 287 286 286 286 280 277 275 274 276 271 270 271 280 273 283 279 281 278 277 282 280 278 274 280 277 276 277 276 279 283 278 274 275 273 276 280 281 280 280 279 279 280 281 281 281 281 281 280 279 271 270 271 273 272 273 273 274 274 275 274 268 270 271 269 269 270 271 270 271
297 295 289 285 284 281 281 284 283 288 296 294 293 287 283 285 281 283 283 281 283 284 279 281 276 274 273 274 270 280 280 275 283 276 278 281 278 275 280 277 276 280 269 274 276 282 277 276 275 274 275 280 280 281 281 281 281 281 280 280 281 281 281 281 280 278 275 275 272 271 266 266 269 271 272 273 273 272 273 274 274 273 272 272 273 272 266
293 286 285 284 282 279 279 279 291 295 288 286 282 278 278 280 278 275 275 280 280 276 281 279 277 277 274 272 272 283 279 277 277 277 273 281 277 272 277 271 277 278 271 271 272 282 272 274 274 274 273 277 278 279 281 281 281 280 281 281 281 281 280 280 280 278 277 277 278 279 275 274 273 273 272 272 273 274 274 273 271 270 270 270 268 263 262
285 283 282 281 278 280 285 289 296 290 287 281 279 278 274 278 275 270 278 273 273 276 280 274 280 275 278 276 275 274 283 278 274 273 275 274 282 272 275 272 274 274 268 271 271 278 271 268 273 272 272 276 277 280 281 281 280 281 280 280 280 280 281 281 279 278 277 278 278 277 275 275 276 276 276 273 272 273 272 269 269 266 264 264 260 261 261
285 282 281 278 278 279 282 285 283 282 280 277 277 277 274 270 271 270 273 271 273 272 276 275 279 276 278 275 276 274 280 279 273 276 276 273 276 275 271 270 276 268 268 269 272 266 263 264 269 270 272 277 278 279 279 279 279 279 279 279 280 280 280 279 276 273 271 273 274 274 274 270 271 273 274 270 270 271 270 268 264 258 256 257 257 255 253
285 283 281 283 282 283 284 281 277 276 274 275 273 270 273 271 269 264 267 268 271 272 270 276 274 276 276 279 276 279 273 273 271 274 272 270 277 268 266 266 267 265 265 270 266 260 264 261 264 264 273 277 278 277 273 275 276 277 277 278 278 278 275 273 274 270 269 274 274 275 267 262 259 255 253 256 261 260 259 256 254 253 253 252 252 253 254
291 288 285 279 278 276 276 275 276 275 270 270 269 266 269 266 269 270 266 268 262 263 266 268 268 277 274 276 272 272 275 278 275 274 270 266 276 272 268 268 269 263 266 264 263 265 262 262 262 267 273 275 276 276 275 276 275 273 273 269 267 268 269 273 273 271 258 258 258 258 252 251 249 248 249 250 252 251 250 251 252 251 252 252 252 252 252
285 282 278 276 277 277 277 268 276 270 268 269 269 265 266 264 266 265 261 264 262 264 269 273 271 275 272 277 276 275 274 277 280 269 268 273 269 269 271 266 269 271 268 263 266 263 264 261 267 271 272 272 274 273 273 272 272 270 268 262 258 261 263 263 260 259 255 253 251 251 251 250 249 249 248 249 250 250 249 249 250 252 252 252 252 251 250
279 276 275 273 270 275 273 267 272 268 266 267 271 265 266 266 269 267 269 266 265 267 269 271 273 271 271 269 269 273 278 271 277 273 271 274 267 271 267 265 269 268 267 266 267 264 262 264 269 269 270 272 273 272 269 267 267 271 268 260 259 259 260 262 261 259 255 253 252 251 251 250 250 249 249 249 249 249 251 250 251 252 252 251 251 251 251
277 275 274 270 268 272 269 268 267 263 266 269 266 266 268 270 266 267 268 264 265 266 272 273 273 272 270 269 273 273 273 272 271 272 274 272 268 267 270 268 268 265 266 266 265 265 268 271 273 274 274 273 273 270 264 263 260 261 265 267 265 257 256 257 255 254 253 251 251 252 251 251 251 251 249 248 248 249 249 250 250 251 252 251 250 249 251
277 276 273 273 269 270 269 265 265 265 263 262 263 268 270 271 267 268 266 265 268 270 271 269 272 273 273 268 268 267 267 271 270 271 271 267 268 270 273 268 265 266 265 264 265 266 269 272 274 273 263 256 256 256 256 256 256 257 262 259 255 254 253 253 253 253 252 252 252 252 251 250 249 249 249 250 248 248 249 249 249 251 250 249 250 250 249
273 276 274 267 266 270 268 268 262 260 259 261 261 261 262 264 269 268 267 265 270 273 273 273 270 270 269 270 270 269 265 266 271 271 271 269 270 265 265 264 264 264 263 264 267 270 270 270 264 256 254 254 253 254 254 255 255 254 253 253 253 252 252 252 251 251 251 251 251 250 250 249 249 250 250 249 249 249 247 246 246 247 248 247 247 247 246
275 273 272 270 270 268 267 264 266 268 263 257 257 263 265 270 267 267 267 266 270 271 272 272 268 270 267 270 268 270 266 270 266 268 270 267 265 263 264 260 263 261 264 264 267 267 267 261 253 252 251 252 253 252 251 251 251 251 251 251 250 250 251 250 250 250 249 250 250 249 249 249 249 249 249 249 249 248 248 246 245 245 245 246 246 246 245
271 269 267 264 264 263 260 257 262 264 260 260 262 262 260 265 266 267 266 267 267 271 273 275 274 270 266 267 264 267 266 269 268 269 265 265 266 266 263 257 260 261 260 260 261 260 254 251 254 253 253 252 252 252 250 251 251 250 250 250 250 250 250 249 249 249 249 249 249 249 249 249 249 249 250 250 249 248 247 245 244 243 243 243 245 244 244
273 271 268 267 267 265 264 263 266 259 258 263 259 263 262 268 268 268 266 267 269 269 266 265 269 266 266 265 265 263 265 270 266 266 266 263 263 261 261 261 262 262 261 257 255 254 253 254 253 253 254 254 254 253 253 252 251 252 252 251 251 251 250 249 248 248 248 249 249 250 249 248 248 247 248 249 249 249 248 248 246 242 242 242 243 243 244
269 267 268 266 264 265 265 261 260 261 262 261 264 260 262 265 262 263 265 269 271 270 267 265 266 266 265 264 267 267 267 265 265 266 262 265 265 260 257 260 264 263 258 257 256 253 251 251 251 250 249 250 251 249 249 249 248 248 248 249 250 250 250 250 249 249 249 248 247 247 246 246 247 248 249 250 250 249 248 245 246 244 244 243 243 243 244
Wind_Speed
10 10 11 12 14 15 16 17 16 16 20 11 4 5 4 9 5 4 6 11 18 14 11 6 5 10 5 7 2 4 1 3 2 4 1 2 1 2 2 5 4 4 2 2 3 6 3 7 7 3 4 3 4 5 7 6 6 5 0 3 2 5 1 1 3 1 3 4 3 1 2 1 1 1 1 3 6 8 9 8 4 4 0 2 1 5 5
11 10 9 11 13 15 18 19 18 18 11 8 5 4 4 3 3 2 2 9 8 14 13 14 14 7 2 7 4 2 3 6 4 5 4 4 3 4 3 1 4 1 2 2 6 5 2 2 4 3 3 3 1 2 5 4 5 4 5 5 6 3 3 5 1 2 2 2 3 2 2 2 1 2 2 1 1 3 1 4 1 1 6 5 3 15 8
11 11 10 9 11 12 14 17 16 11 6 3 6 5 3 4 2 2 2 2 7 8 2 5 10 10 8 8 10 6 2 4 8 10 7 2 2 3 2 3 3 2 1 3 1 3 7 0 5 3 2 3 1 6 4 4 4 1 2 2 4 3 3 7 8 12 11 10 8 7 8 8 2 1 2 3 6 4 2 6 3 7 2 9 7 13 1
10 11 11 10 9 11 13 11 10 9 7 3 4 3 4 2 3 1 1 3 3 4 1 1 2 3 6 10 8 9 5 1 3 7 4 7 3 3 2 1 3 3 3 3 4 6 5 7 2 5 3 1 1 2 6 0 3 2 5 3 3 2 1 4 7 10 13 9 2 2 3 2 4 5 5 8 3 4 3 3 2 10 3 6 10 6 1
9 10 10 10 10 9 7 8 10 9 8 6 4 3 2 1 4 4 4 2 3 3 4 3 3 4 3 5 5 11 12 3 0 6 4 5 7 2 3 3 5 4 5 7 7 6 5 3 2 5 4 2 1 2 4 3 4 6 4 1 4 3 3 7 7 8 9 1 4 4 7 7 6 8 10 7 5 6 8 10 9 4 3 13 6 5 3
9 9 8 8 8 7 8 7 7 7 6 5 2 3 1 2 2 2 1 4 7 10 8 11 9 4 2 3 1 6 10 6 6 2 3 2 7 6 1 3 10 11 15 8 5 6 7 6 7 3 2 2 0 1 1 2 2 2 1 1 4 5 8 5 4 7 5 2 2 3 3 4 3 7 8 8 7 4 10 5 12 7 10 14 6 5 5
9 8 8 7 7 8 7 6 7 6 6 4 2 4 1 2 1 1 2 2 1 8 2 6 11 12 10 4 5 7 10 13 9 4 4 3 4 12 7 13 15 10 8 9 7 8 6 10 6 6 5 6 4 2 2 2 0 2 2 2 2 3 6 4 3 5 3 3 5 3 6 3 3 7 9 5 7 10 9 13 8 4 6 7 8 4 10
10 10 10 9 8 7 7 6 6 6 6 4 3 2 2 2 2 2 2 2 3 1 3 6 9 10 11 7 9 9 9 12 5 1 7 4 6 5 12 12 11 12 10 12 11 13 11 5 7 4 6 2 3 6 5 3 1 0 4 4 3 5 4 7 3 3 4 2 1 1 1 3 8 10 9 5 2 7 13 6 0 3 5 11 10 11 14
13 12 11 10 10 10 9 8 7 7 4 4 1 1 3 2 2 0 4 2 1 0 3 6 9 9 9 10 9 5 6 9 7 3 1 7 6 6 17 16 3 3 5 7 11 9 8 6 10 8 12 12 10 9 5 10 5 4 2 2 2 3 4 3 3 4 4 0 3 3 4 1 5 10 12 4 6 13 9 6 6 8 12 9 4 5 10
15 14 13 12 12 11 11 10 10 8 5 4 2 2 1 3 1 2 2 2 3 5 1 3 5 9 10 10 6 6 12 6 4 3 3 4 3 5 8 8 6 3 8 14 18 14 6 8 3 3 1 3 3 1 3 10 13 10 9 0 6 5 6 5 3 5 4 1 2 3 2 4 11 19 15 11 14 12 1 2 7 14 10 6 9 12 10
17 16 15 14 13 13 13 12 12 10 5 4 4 2 2 3 3 2 3 3 1 6 6 5 9 2 3 5 7 4 4 5 8 10 2 2 2 0 4 6 7 5 11 8 1 6 7 8 5 5 7 5 4 2 5 4 2 6 9 2 0 4 7 4 4 5 3 3 4 3 2 10 17 1 5 12 12 13 13 14 16 8 7 7 7 8 3
18 19 18 16 15 15 14 14 13 13 6 4 5 3 3 2 4 4 3 7 6 4 8 8 11 5 4 6 10 9 11 11 9 8 9 1 1 2 3 3 3 8 0 7 13 12 9 4 9 9 10 8 7 5 4 6 1 0 6 9 5 8 5 5 2 4 3 1 4 3 13 17 1 2 2 3 6 7 12 12 7 6 6 7 6 6 6
19 19 20 19 17 16 16 15 14 13 7 5 5 5 2 1 3 3 3 3 6 6 8 8 6 6 3 3 6 10 10 7 5 5 3 5 1 1 1 3 7 2 9 11 12 10 6 3 6 3 4 4 5 6 6 2 2 3 1 2 9 7 8 4 2 5 4 3 6 8 12 0 3 3 2 2 3 1 0 6 8 10 11 11 9 11 13
22 22 21 21 20 19 18 17 15 13 10 6 5 4 4 3 4 3 3 3 6 3 3 5 1 4 6 4 4 1 3 3 2 2 5 2 4 5 1 0 1 4 6 8 7 8 5 2 2 2 1 3 3 1 2 4 3 1 1 1 1 10 4 4 4 3 6 5 8 12 5 10 10 9 3 6 5 6 6 8 8 13 6 7 7 10 12
20 22 23 22 23 22 22 21 18 17 13 8 5 4 4 3 4 4 1 2 3 1 4 9 6 9 3 3 4 4 3 3 7 1 3 2 3 1 1 1 2 3 1 5 2 2 4 3 3 4 2 3 5 6 3 3 1 5 4 2 2 2 9 5 5 4 6 6 5 3 3 13 14 8 0 1 3 5 4 4 7 6 1 7 10 10 13
17 18 22 23 23 22 21 19 18 19 18 12 6 4 4 4 3 4 3 4 2 6 5 7 3 3 5 4 5 9 6 5 4 3 2 2 1 1 1 1 1 1 3 3 2 5 4 6 6 7 6 6 1 4 3 4 1 1 7 3 3 5 3 1 7 3 4 2 7 9 11 11 5 4 4 1 1 7 5 1 7 5 6 10 11 8 4
18 17 18 22 23 23 21 19 17 18 20 16 7 6 4 5 4 4 4 1 2 6 4 5 1 3 3 0 0 1 4 7 7 5 3 3 3 1 1 2 1 2 1 4 2 4 3 2 1 2 1 2 4 5 4 2 3 1 5 7 5 3 1 3 2 3 6 5 6 9 4 6 3 4 2 2 3 4 4 1 8 4 5 4 6 8 8
19 17 16 19 20 21 23 20 17 18 20 17 9 6 4 4 5 5 3 3 4 4 1 4 2 1 6 3 2 1 4 4 4 2 3 1 4 2 3 3 2 2 2 4 3 5 3 4 7 5 6 3 3 3 5 5 6 5 5 5 4 2 1 3 11 11 12 12 6 3 6 5 3 5 5 4 3 5 5 11 9 3 5 7 6 7 9
20 19 18 17 18 21 23 22 20 20 20 18 7 4 1 4 4 4 4 2 2 5 1 1 0 1 1 2 1 2 2 2 6 7 3 3 3 3 5 1 2 4 1 6 1 4 6 4 3 2 4 2 2 7 1 4 6 2 8 5 3 2 3 4 2 6 11 9 9 9 5 6 7 5 8 7 5 3 11 6 3 9 6 6 9 8 6
20 21 21 20 19 18 19 20 20 20 21 20 12 6 2 7 7 10 8 5 3 4 3 2 3 6 2 2 2 1 0 2 1 5 7 7 2 8 4 2 3 4 2 4 5 2 3 4 4 1 1 5 4 5 3 3 2 9 4 5 6 10 8 7 9 3 1 1 6 3 7 7 13 12 3 2 4 8 4 2 1 5 8 8 7 7 6
20 20 20 21 21 21 20 20 20 21 20 21 14 6 4 3 6 4 3 6 4 2 6 3 1 4 2 2 4 2 3 5 5 5 4 4 8 9 7 7 7 4 6 5 8 4 4 3 1 3 3 4 5 3 5 3 2 6 6 5 4 4 4 3 5 6 7 9 9 11 9 3 14 16 10 6 11 6 7 6 4 3 5 6 6 8 8
21 21 21 20 19 20 21 21 21 22 22 22 16 7 7 5 7 6 3 4 3 5 4 0 2 3 5 5 5 5 5 3 5 4 7 4 2 2 1 4 6 4 3 4 5 2 2 2 2 3 4 2 2 5 3 5 4 2 3 3 1 8 10 8 8 5 9 10 10 2 4 10 9 8 6 8 12 5 7 5 4 5 6 5 5 8 7
22 21 20 19 20 19 19 20 21 21 22 23 16 7 8 7 5 5 7 4 1 0 0 1 1 2 2 2 4 6 4 1 2 2 4 7 1 1 3 4 4 1 1 0 7 5 5 7 6 5 2 1 10 3 1 3 3 2 6 6 4 5 1 2 3 5 3 3 5 1 1 3 9 7 5 7 7 5 4 5 4 5 5 9 8 7 6
22 20 20 20 19 20 20 19 20 19 20 21 16 8 7 7 8 7 4 2 3 2 4 2 1 5 6 7 8 2 2 1 4 5 2 3 8 1 2 2 1 2 0 3 3 6 5 3 4 2 3 5 7 3 8 8 6 4 2 2 3 3 2 3 3 3 2 8 3 7 6 4 6 11 8 4 4 5 5 5 6 6 5 6 5 7 7
22 23 22 20 20 21 20 20 20 21 21 21 16 9 5 4 6 10 9 6 4 5 5 2 8 9 7 4 1 2 5 4 2 2 2 1 5 8 8 5 5 6 6 5 2 8 2 4 1 1 5 7 8 5 3 4 5 5 3 5 2 5 4 3 5 3 7 7 3 3 1 0 4 7 8 8 11 6 4 7 7 7 4 5 8 5 5
21 20 21 23 23 22 21 22 22 21 20 23 17 9 9 9 8 8 6 2 2 2 4 7 5 1 1 2 3 5 4 8 5 3 3 4 3 4 7 4 2 3 5 2 3 6 5 3 2 1 5 6 3 4 4 5 4 2 6 10 7 4 5 4 5 7 7 2 2 3 2 3 5 6 7 9 8 5 6 8 8 6 6 7 5 4 7
22 23 23 21 21 22 20 21 22 21 23 22 13 8 9 6 9 13 11 9 6 2 6 9 3 0 1 7 3 1 3 7 6 6 3 3 4 4 5 6 7 3 5 4 4 5 3 3 3 5 3 4 3 3 3 1 4 4 3 5 3 5 6 2 3 5 4 7 8 5 2 6 8 9 13 13 11 7 7 5 5 6 8 8 7 8 7
23 21 20 20 21 21 21 22 22 23 22 18 12 9 8 8 10 11 10 12 12 4 2 3 2 4 2 1 4 6 6 7 9 8 6 4 4 6 7 8 6 5 3 6 1 1 2 4 7 2 1 0 2 2 1 1 2 2 3 8 7 9 11 7 8 10 7 6 7 9 10 7 6 9 8 8 7 7 8 10 10 10 10 9 8 9 9
21 21 22 23 22 21 21 22 22 20 21 16 8 7 6 8 7 8 10 5 3 4 4 2 1 2 4 5 2 4 5 7 8 9 8 5 6 5 7 9 8 6 4 3 3 3 3 4 4 5 3 6 6 3 3 2 4 8 11 10 7 12 6 13 14 5 2 6 9 6 5 8 9 10 6 6 7 9 11 12 12 12 10 8 8 10 11
22 22 22 21 21 20 20 21 21 20 18 5 4 2 3 2 6 10 11 9 5 3 4 4 2 5 1 2 2 1 3 4 6 7 8 7 7 7 8 8 4 5 3 5 6 4 4 2 2 2 1 1 4 3 3 3 4 9 12 13 12 10 10 8 4 8 10 6 3 5 8 9 11 10 6 6 6 9 9 12 12 10 8 7 8 9 8
24 24 24 22 21 22 23 23 22 22 17 7 5 3 4 5 7 10 13 10 7 5 2 2 5 0 2 3 2 6 7 5 7 8 10 11 10 8 4 5 1 5 3 2 3 4 2 2 3 2 0 5 4 4 5 5 5 4 16 15 13 15 13 12 7 7 7 7 3 4 5 9 8 1 6 10 9 8 7 5 5 7 9 6 9 10 10
22 24 24 24 23 21 21 22 23 17 10 10 10 5 2 3 2 14 19 13 9 4 4 3 2 2 2 2 1 2 4 5 3 2 2 3 3 2 2 7 6 4 4 5 2 1 3 4 3 4 5 5 6 1 3 4 9 14 17 14 11 13 11 5 4 6 6 8 4 2 4 10 7 10 13 13 10 5 9 9 8 8 10 9 8 6 8
18 21 22 21 19 19 19 20 20 12 7 7 11 9 5 7 9 16 14 11 6 2 2 2 4 2 2 5 1 1 3 4 2 4 4 2 5 3 1 1 2 1 3 3 2 4 2 3 3 4 5 4 4 3 6 10 14 20 20 16 13 10 5 4 5 8 10 11 12 12 13 15 14 13 12 13 13 6 6 8 9 6 4 5 8 8 6
17 17 17 18 17 17 16 12 13 16 12 7 2 2 1 8 11 15 11 6 3 1 1 3 3 3 3 3 4 4 5 7 6 7 4 1 3 5 3 4 3 4 4 8 6 3 3 1 7 3 4 2 3 3 8 13 21 21 18 16 15 9 2 4 5 9 11 10 8 13 16 16 11 1 3 7 11 8 5 6 4 4 8 8 10 10 8
17 14 14 16 15 15 18 17 9 4 4 3 2 0 6 11 9 13 11 5 5 2 2 3 1 3 1 1 3 5 2 5 5 7 7 2 3 5 3 4 5 6 4 4 1 6 6 7 4 5 6 5 4 7 11 17 20 18 18 17 13 8 5 7 11 13 12 5 7 10 12 9 7 8 11 10 9 6 5 8 7 8 9 10 10 9 6
20 19 17 15 13 10 5 6 3 4 2 3 3 8 17 14 13 7 5 2 2 3 3 2 4 6 7 7 6 3 2 1 1 4 3 2 1 2 2 4 5 6 2 4 6 6 7 3 4 5 6 7 11 12 15 16 19 19 18 15 13 12 14 17 17 15 8 5 10 9 10 9 11 14 13 11 9 8 8 8 6 5 8 10 11 9 6
20 20 19 16 9 4 2 1 1 2 3 5 10 15 15 12 6 4 2 1 1 1 2 2 3 5 6 4 1 3 3 4 3 3 5 4 4 2 4 3 7 2 3 3 5 9 6 4 6 6 8 12 15 15 17 18 16 16 14 12 14 13 12 14 16 15 12 7 8 7 8 9 9 9 9 10 11 8 6 8 11 10 11 14 13 9 11
22 18 10 5 3 3 3 3 3 6 18 23 16 7 3 3 3 2 2 2 2 3 2 2 3 2 3 4 2 4 5 2 2 5 2 4 4 3 2 2 4 4 5 4 6 4 4 3 5 8 10 10 12 14 17 15 14 10 9 11 12 12 13 13 13 11 9 11 9 9 5 4 7 9 10 12 12 10 12 13 12 11 11 11 12 9 5
17 6 4 2 4 2 3 4 8 20 11 4 5 3 1 0 2 2 1 1 1 2 3 4 6 4 4 2 1 1 4 4 3 3 4 4 5 3 2 3 4 3 3 2 6 7 3 5 4 5 9 10 14 20 19 14 13 10 11 13 12 12 11 12 12 13 14 15 17 14 10 12 13 14 11 11 11 10 10 10 8 8 10 10 8 4 4
6 6 5 5 3 2 1 9 21 10 3 3 1 4 2 1 3 3 1 3 1 2 3 6 4 4 8 9 7 4 2 4 6 4 4 2 0 4 1 2 3 4 5 6 4 6 6 5 5 5 11 12 16 18 16 15 15 15 11 11 12 14 13 15 13 8 9 11 10 11 7 10 11 12 11 11 12 12 10 9 9 7 6 6 3 5 6
5 4 4 4 3 2 2 3 4 4 3 2 2 1 2 0 1 1 2 3 3 3 1 2 2 3 3 3 4 6 1 4 1 2 2 4 1 5 2 2 1 3 3 4 1 4 1 1 4 9 13 14 14 17 15 11 11 10 10 12 13 13 15 13 9 6 5 7 8 9 10 7 9 11 10 6 7 9 8 5 5 4 3 3 4 3 4
4 5 4 6 5 5 4 5 2 3 2 0 3 3 3 1 2 2 1 5 5 2 3 3 4 7 7 10 7 5 2 1 2 1 2 1 3 5 3 0 1 4 3 2 3 2 3 2 3 4 8 13 12 9 6 9 10 10 12 12 12 11 8 7 8 7 6 10 10 9 3 1 2 1 1 1 1 1 1 3 4 3 4 4 5 6 5
21 15 8 5 3 3 1 3 1 2 4 2 2 1 1 3 3 4 3 1 2 3 4 2 1 2 2 3 1 0 4 1 2 1 2 3 1 2 2 1 2 1 4 2 2 1 2 3 4 9 9 11 11 11 10 11 10 8 8 3 2 3 5 8 9 7 1 1 2 1 1 3 4 2 1 3 7 9 6 5 6 7 6 6 6 5 5
6 5 6 1 3 1 2 3 2 4 0 1 4 5 3 2 2 2 1 4 2 1 5 8 6 8 5 1 5 2 2 0 3 2 0 0 3 2 2 3 3 2 4 1 2 4 6 3 8 9 9 8 9 9 9 7 7 6 5 2 0 0 1 1 2 3 2 3 5 4 5 7 6 4 4 4 3 10 9 8 4 7 7 7 8 6 4
4 3 3 2 2 2 3 2 2 3 5 4 4 3 5 9 9 8 10 4 4 6 3 4 7 5 5 2 3 2 2 2 1 4 4 4 1 2 3 4 1 2 3 3 2 1 1 6 8 8 8 10 10 8 5 5 4 6 5 1 2 1 2 5 4 3 3 3 3 5 5 4 6 7 6 6 5 4 8 9 5 7 7 8 7 7 4
3 4 4 4 3 1 3 1 2 0 2 3 5 8 9 10 7 7 3 2 4 3 8 7 7 6 5 2 6 5 2 3 3 3 2 1 4 4 3 1 2 2 2 2 5 9 11 12 11 11 10 8 6 5 5 1 1 1 4 5 7 5 2 2 2 3 4 6 4 5 6 4 6 8 8 6 6 7 7 6 4 6 7 8 6 6 4
2 2 2 1 1 1 2 3 4 5 4 3 5 7 7 6 4 3 3 3 6 6 5 2 4 4 8 3 2 1 0 0 2 2 4 2 4 0 2 2 3 3 5 6 6 6 9 10 10 5 3 6 9 8 7 6 4 2 2 0 2 3 3 4 4 5 4 5 6 7 6 6 6 7 8 9 7 6 5 5 5 4 5 7 6 6 5
4 1 3 2 3 3 7 5 1 1 1 1 1 1 1 2 6 1 1 2 5 7 8 7 3 0 2 2 3 4 2 1 2 3 2 2 2 3 1 0 3 2 3 4 10 8 7 4 1 3 4 3 4 6 6 6 5 5 4 3 3 3 3 5 5 5 5 6 7 7 6 6 6 6 8 9 7 7 5 5 5 5 7 6 5 5 5
2 2 3 2 0 2 0 1 5 5 1 2 1 2 4 6 4 2 2 1 5 6 4 5 3 4 1 0 3 2 1 2 3 3 3 0 3 4 3 4 3 3 5 7 7 5 4 1 2 3 3 4 4 4 3 3 3 4 4 3 3 3 4 5 5 5 4 5 5 7 7 5 6 7 7 7 9 6 4 5 5 5 4 5 5 5 4
3 1 2 3 3 3 0 1 3 4 1 0 1 2 0 3 4 1 1 3 3 5 2 4 2 4 2 3 0 1 1 1 2 0 3 2 3 2 3 1 3 5 3 3 4 2 1 2 4 4 4 4 4 4 4 4 3 3 3 4 4 4 4 6 6 5 4 5 6 6 6 6 6 6 7 7 6 6 5 5 5 4 4 4 4 4 3
1 2 1 1 3 6 6 4 8 4 1 4 3 5 3 6 5 4 0 3 3 4 4 2 1 2 2 1 1 1 3 2 3 3 4 3 2 3 4 4 5 5 5 0 1 3 2 4 4 4 6 6 5 5 3 4 3 3 3 4 5 6 7 6 7 8 7 6 6 7 7 5 5 5 5 6 7 7 6 4 4 3 3 2 2 2 2
2 2 0 2 3 3 2 2 3 2 3 2 3 0 0 3 1 0 3 3 6 5 2 1 4 2 2 3 3 1 1 4 2 1 1 3 2 4 3 5 4 2 1 3 2 3 3 3 4 4 4 4 4 4 3 3 3 3 4 4 4 6 5 6 6 7 7 7 6 7 6 5 5 5 5 6 6 6 6 3 1 1 2 1 0 1 0
Wind_Direction
103 114 126 127 124 123 128 124 123 129 126 132 170 101 163 193 194 13 170 169 158 165 205 193 196 211 215 80 67 118 135 161 187 167 224 188 116 91 191 197 159 255 145 201 159 161 175 168 201 180 191 240 197 201 163 143 103 90 242 78 243 87 116 224 290 328 324 327 299 343 60 96 350 303 74 121 197 206 224 239 191 206 323 274 16 240 258
98 102 112 118 123 136 138 138 138 146 150 142 118 141 151 108 122 131 104 184 189 183 192 200 206 199 41 184 182 68 164 163 159 196 188 171 164 175 176 7 231 196 155 143 177 186 167 231 141 264 189 215 11 78 158 174 172 152 219 151 212 143 248 143 202 333 343 345 344 332 335 56 172 213 249 190 116 63 117 94 107 200 217 206 154 256 247
101 101 102 105 117 125 131 138 138 124 68 96 131 143 149 110 60 61 117 151 210 208 247 216 193 205 193 177 185 170 166 220 193 172 188 140 158 119 231 187 145 184 155 174 86 209 195 106 237 193 161 214 8 342 109 263 177 164 256 119 154 168 179 139 194 220 231 238 209 222 234 224 231 237 279 255 191 170 119 242 193 227 195 171 226 251 279
110 109 104 103 108 122 129 117 94 83 73 38 91 153 104 184 143 182 65 164 231 274 30 80 132 171 179 183 197 177 189 231 220 167 199 172 166 160 125 47 146 155 131 154 177 207 232 192 204 156 221 249 338 276 355 199 233 230 152 142 105 165 118 183 202 207 231 234 193 233 114 76 191 244 199 228 186 212 189 86 159 219 237 226 230 253 57
116 112 110 109 113 116 97 77 77 71 56 47 106 41 122 47 124 160 176 76 250 234 191 194 166 219 166 202 156 188 195 157 277 183 185 184 166 137 151 153 161 229 163 191 207 200 209 224 147 200 159 241 221 354 116 64 47 141 101 359 78 85 210 225 219 230 245 195 204 196 166 197 218 215 237 225 186 176 181 199 223 167 185 250 225 139 192
127 118 110 112 107 105 106 96 73 62 44 32 44 91 28 128 275 111 237 137 197 195 222 209 209 221 212 246 126 186 192 185 197 131 235 128 170 162 296 175 206 183 187 169 178 192 206 175 209 118 234 106 33 44 4 122 291 134 131 346 147 154 224 218 180 242 245 126 215 173 196 220 206 208 219 221 180 150 202 221 232 181 212 252 243 164 204
141 136 133 125 122 118 116 106 99 79 63 39 83 97 309 97 25 196 352 165 277 204 34 175 199 208 201 229 203 207 201 206 199 156 159 147 209 195 200 205 206 196 176 162 201 168 173 228 205 173 186 174 138 172 346 272 352 120 134 129 179 118 237 195 162 225 230 222 205 202 199 222 266 244 242 229 167 210 215 230 234 173 236 257 265 244 238
162 159 155 148 143 137 127 115 109 111 88 57 58 38 124 192 127 231 12 57 7 286 155 171 191 214 201 212 219 214 207 211 172 168 159 180 217 194 219 218 197 192 188 189 200 203 207 172 188 208 160 199 177 212 180 149 16 100 179 155 266 153 264 115 154 177 246 219 85 63 155 227 251 256 251 233 164 217 226 246 88 222 272 260 263 266 271
173 172 171 167 161 156 147 136 132 129 123 57 73 29 51 67 43 243 122 213 235 33 162 169 196 204 197 213 224 197 213 223 198 216 218 190 187 183 207 217 142 132 171 214 230 222 205 174 197 195 166 203 201 180 245 151 161 176 162 180 240 148 231 72 138 187 276 151 153 165 76 333 253 265 256 153 205 246 232 213 202 221 235 235 244 267 260
180 178 179 177 174 169 165 159 154 152 106 104 101 129 161 55 340 72 108 195 192 191 271 193 165 220 211 205 189 184 216 212 144 248 226 217 195 179 208 223 179 200 196 215 221 223 206 219 186 145 177 35 21 132 160 177 176 178 178 132 158 173 142 152 161 200 215 174 118 137 52 348 285 252 240 202 223 240 245 246 220 223 223 215 226 239 242
193 188 186 183 180 178 174 170 166 159 129 136 116 145 118 138 133 47 42 179 280 182 183 218 205 236 107 178 233 205 237 168 177 197 261 114 227 20 205 197 191 207 209 221 251 97 105 106 117 71 75 72 86 54 126 85 128 163 152 101 155 124 151 176 172 207 169 111 118 99 105 247 245 18 144 182 206 222 233 240 237 225 167 205 206 240 265
198 195 192 189 186 185 183 178 176 173 162 156 114 125 185 124 84 77 119 205 226 154 194 210 202 218 189 183 206 216 222 219 207 201 223 161 228 53 155 213 172 232 166 116 105 100 96 63 64 62 57 55 62 54 100 153 84 327 179 156 174 168 172 159 161 128 176 149 122 173 219 240 10 164 288 195 197 209 219 243 258 249 229 238 252 272 246
204 199 196 195 192 191 188 188 184 181 143 132 116 145 189 141 114 129 139 187 231 164 195 231 223 234 239 205 214 223 224 228 196 174 191 154 200 152 203 170 195 196 142 127 118 101 80 87 53 66 32 32 26 33 25 65 101 54 12 147 148 171 156 140 75 120 48 111 201 226 240 123 245 249 164 111 93 145 70 306 268 246 229 213 215 232 245
205 204 202 196 194 193 195 195 189 188 156 128 120 143 138 143 128 115 145 148 235 186 219 285 335 248 217 203 195 252 79 94 66 93 164 345 170 170 262 336 290 132 149 119 90 108 82 47 64 121 263 34 2 1 300 9 343 25 339 350 10 160 90 145 191 185 186 195 195 238 13 312 283 269 179 177 185 184 171 246 261 252 206 179 197 224 247
222 210 204 202 200 198 198 203 200 190 172 150 109 94 109 117 118 134 216 93 222 20 180 214 218 220 176 206 174 154 155 168 160 196 28 29 76 314 204 260 320 174 223 122 111 47 145 122 107 155 303 128 202 219 60 236 357 30 25 10 48 147 168 220 183 252 142 159 242 298 277 252 250 247 127 249 162 140 175 173 282 282 229 190 177 213 235
238 231 217 206 209 208 205 208 207 187 177 157 128 127 159 159 114 94 121 144 140 251 232 217 96 132 184 210 184 196 187 174 174 102 104 45 341 44 28 109 335 46 44 75 91 119 164 173 192 166 201 191 253 90 249 123 338 33 40 38 78 23 62 151 214 213 65 163 216 224 234 247 223 219 197 233 154 128 108 75 282 266 192 205 181 204 213
234 236 233 219 213 207 205 209 213 196 179 160 155 151 167 182 137 137 112 41 197 222 75 67 91 104 81 9 42 256 185 189 159 160 171 192 149 95 44 65 317 76 209 96 182 106 126 64 53 110 351 160 128 209 57 76 137 332 36 44 57 55 7 100 218 205 218 206 221 238 219 252 268 214 246 182 137 112 77 319 272 257 212 187 170 187 190
233 230 230 223 212 212 207 203 206 203 187 168 156 160 172 178 152 113 76 132 173 274 233 172 97 194 197 195 181 237 78 76 53 34 85 106 101 148 174 129 139 295 194 145 183 116 137 138 173 181 192 235 147 108 192 164 158 198 163 145 135 164 303 217 206 217 230 228 262 343 280 281 217 175 173 144 149 84 109 226 235 234 187 205 185 200 195
230 227 224 222 217 215 212 207 202 204 205 188 141 103 144 156 157 110 114 111 164 236 298 38 305 174 226 79 146 177 192 188 159 120 162 113 237 206 136 209 165 184 342 149 61 142 177 224 20 106 149 242 140 198 183 127 196 63 120 94 62 339 94 328 314 223 226 224 239 241 268 233 175 280 155 159 96 186 221 234 194 149 197 207 196 202 204
227 227 225 220 216 215 213 212 205 205 207 190 161 176 156 154 179 167 163 169 194 219 253 193 168 201 237 151 193 107 231 69 311 132 179 171 208 117 99 109 300 91 334 149 192 214 141 200 183 131 42 183 219 155 41 257 110 161 177 213 154 185 150 195 201 207 74 173 232 303 273 265 133 126 58 287 153 231 191 153 226 188 182 177 215 207 212
224 225 226 224 217 212 210 206 206 207 207 195 170 154 156 172 168 185 141 136 124 207 284 249 157 223 189 205 201 180 157 190 181 146 212 144 186 149 171 201 173 139 189 177 173 219 160 206 221 182 220 146 234 76 187 175 313 265 136 186 178 209 110 227 238 179 150 192 196 206 225 110 151 139 173 206 213 187 161 133 200 214 165 185 192 223 211
225 223 222 220 219 216 212 210 208 206 204 197 171 159 184 179 168 172 154 119 137 177 206 239 162 205 222 223 218 179 189 217 216 157 134 130 284 182 195 98 148 152 197 116 60 27 353 155 49 94 194 223 356 204 179 113 229 246 355 125 296 216 195 174 189 207 162 193 215 202 132 158 187 170 192 201 215 178 181 158 180 164 229 190 181 220 217
224 223 221 218 213 209 209 210 206 205 203 198 177 178 176 149 158 155 136 178 281 303 333 339 324 301 290 265 233 208 223 181 134 122 158 125 177 4 141 143 188 179 105 97 168 161 162 137 196 159 48 217 178 178 308 178 210 203 170 246 202 296 162 161 82 256 280 288 215 140 39 166 194 234 205 200 226 230 160 188 209 235 199 167 186 212 202
221 220 219 217 214 209 205 205 208 203 202 199 180 168 174 168 155 135 136 151 175 241 310 252 251 252 228 255 252 193 102 146 196 199 222 142 151 249 332 266 185 58 297 223 172 136 188 117 204 124 172 228 97 133 180 250 227 188 81 300 265 244 154 147 194 267 156 256 151 157 201 196 199 212 237 250 240 223 187 200 219 227 195 197 217 204 206
222 221 217 217 220 217 213 210 211 210 206 206 187 177 137 135 161 159 154 167 179 187 231 240 224 220 216 214 49 100 214 196 128 139 138 129 152 165 200 204 166 160 206 176 121 76 51 116 201 113 191 248 138 226 271 141 279 159 174 255 310 303 178 123 223 205 193 240 220 223 42 298 230 215 217 238 243 220 192 211 221 224 229 203 217 205 238
221 221 221 215 215 214 212 214 212 211 207 208 185 169 176 177 173 156 159 127 87 124 212 249 258 307 114 121 203 212 190 171 168 151 165 182 156 168 142 102 53 35 99 99 104 137 133 78 99 145 161 273 116 144 223 206 174 225 192 216 202 177 121 216 187 205 244 267 255 125 25 330 272 248 243 239 236 216 212 216 224 226 239 252 248 191 217
218 218 218 218 215 212 207 212 212 210 211 203 185 182 177 175 169 170 176 162 140 290 226 237 198 221 174 202 229 86 121 161 174 170 145 115 117 95 115 135 126 102 108 59 23 118 65 106 139 216 171 230 129 175 149 83 155 151 224 252 133 98 228 192 103 231 230 187 219 135 173 250 245 231 229 228 226 215 231 221 212 226 231 236 244 256 234
215 213 215 219 217 214 215 212 211 207 209 199 186 179 178 174 188 190 180 171 184 179 170 138 185 230 122 340 248 193 192 164 171 169 178 166 128 137 139 154 136 121 142 123 109 128 143 167 237 209 92 264 100 279 145 334 62 14 249 236 176 192 215 142 201 217 228 219 210 193 209 235 228 232 229 216 215 200 218 234 234 236 229 227 229 249 266
210 209 209 212 214 211 209 210 210 211 207 194 158 169 191 202 186 187 185 198 98 104 92 142 1 28 177 241 80 169 224 164 171 171 179 166 157 159 159 164 165 159 119 91 121 122 154 213 134 147 184 209 99 259 115 186 188 221 227 225 181 228 183 190 218 218 261 205 215 192 168 218 245 249 231 195 200 193 214 229 231 233 236 228 216 223 231
210 212 213 209 208 206 210 212 209 205 199 155 89 102 162 270 204 187 188 180 156 115 150 159 154 241 321 38 276 234 141 162 167 166 175 172 178 179 176 165 179 162 136 162 164 185 207 141 232 255 260 190 156 196 149 193 201 242 242 241 229 236 231 225 179 185 226 214 183 168 201 231 242 248 239 229 203 182 202 222 224 227 236 222 221 235 228
211 208 209 207 205 206 206 207 207 197 156 149 145 106 173 213 205 189 174 174 164 158 207 228 226 110 25 250 161 198 180 156 173 184 189 191 193 185 172 129 147 162 147 166 151 214 140 221 175 249 138 202 143 134 179 162 234 258 245 234 230 238 235 233 202 209 226 251 196 153 196 232 243 313 290 255 240 194 206 234 235 212 225 223 226 227 236
217 211 208 208 205 205 207 207 205 180 149 161 179 194 193 205 201 164 174 175 147 141 161 183 231 191 220 263 226 260 162 177 134 140 177 161 209 140 159 181 191 176 157 168 205 85 231 197 137 204 175 193 115 129 145 185 226 243 249 243 231 238 242 232 185 213 216 221 142 84 254 254 217 204 243 249 248 187 186 214 219 211 216 222 233 235 235
213 216 209 203 202 199 200 204 196 170 172 116 89 101 110 95 145 161 166 142 134 177 150 200 177 206 150 237 55 324 153 89 104 154 231 179 190 125 180 155 97 67 233 121 222 203 232 185 158 204 234 110 122 190 213 218 232 240 246 251 251 248 244 203 199 204 211 213 181 199 228 240 241 225 230 253 262 231 188 209 227 217 222 236 249 250 254
195 206 194 180 187 189 182 173 174 159 132 115 156 229 191 97 132 140 122 126 105 152 138 155 175 172 215 321 61 271 142 155 176 167 199 163 148 120 182 119 194 166 252 201 218 152 318 145 198 215 90 177 165 136 229 231 235 241 248 252 252 257 204 212 214 224 227 223 200 211 228 238 249 253 189 233 248 251 218 230 219 212 228 227 238 234 230
176 180 179 166 173 179 180 176 156 94 119 103 66 258 148 138 134 143 141 145 137 206 165 255 169 160 191 355 201 266 179 116 177 180 177 200 114 145 166 123 198 198 235 110 53 201 202 212 145 145 209 148 170 220 230 234 236 239 242 247 250 252 256 261 251 237 239 201 182 222 232 243 250 255 244 237 237 237 212 230 216 209 232 241 235 238 223
174 174 178 167 124 92 85 90 112 140 92 162 189 163 154 141 145 146 138 58 81 163 142 217 156 200 191 212 218 265 105 52 146 95 159 109 19 168 125 154 211 203 111 159 199 177 214 130 107 230 156 163 216 215 230 231 234 236 236 240 241 228 231 235 248 256 247 164 202 212 217 220 220 233 240 240 232 226 213 225 233 196 225 244 247 238 228
169 164 144 119 113 124 114 127 89 109 174 127 107 111 108 95 56 85 65 96 332 76 153 164 119 226 191 207 67 270 109 162 154 123 171 153 164 155 145 185 196 158 109 202 185 204 207 130 193 204 192 207 225 225 230 234 230 234 235 231 235 232 236 241 244 249 258 232 230 223 218 215 228 236 238 239 236 225 201 222 223 206 220 232 240 238 230
158 135 116 116 98 128 159 171 185 164 123 112 108 84 350 11 124 128 130 137 231 112 281 124 218 159 44 108 251 222 116 233 121 153 145 165 114 237 160 159 210 167 212 198 220 132 99 150 208 216 233 231 246 244 239 238 241 231 225 231 233 231 231 234 239 236 240 255 267 255 237 214 234 235 221 237 238 228 219 224 224 217 222 231 234 233 229
134 114 86 98 123 158 174 224 149 125 96 60 56 71 351 135 90 39 238 155 107 186 218 152 217 134 119 112 261 342 156 176 144 179 166 214 135 256 139 160 246 131 247 150 266 134 189 204 200 213 241 234 242 247 247 244 245 230 220 227 229 230 227 234 229 218 218 225 234 237 205 208 221 235 224 230 242 239 232 230 230 223 220 228 236 214 190
112 122 142 128 150 181 11 147 132 107 96 84 350 97 145 192 126 232 126 85 229 255 155 220 190 149 185 184 155 216 187 144 165 191 175 292 316 165 232 87 262 125 211 198 216 130 163 194 195 192 238 230 239 245 245 240 239 238 227 231 235 235 235 235 240 223 219 237 240 248 228 208 216 225 229 221 226 239 240 229 228 224 214 224 208 187 202
136 104 115 146 177 121 89 97 21 53 81 102 85 58 105 347 198 201 99 204 187 234 181 178 94 138 177 125 144 189 245 85 332 87 124 188 235 75 70 183 245 101 233 191 246 87 100 96 184 198 224 228 230 238 241 245 243 243 231 228 234 237 240 243 247 228 203 230 246 249 242 221 215 227 236 240 227 229 240 238 212 198 165 153 154 141 86
133 114 118 94 107 114 86 43 61 84 35 14 123 196 165 163 47 19 167 159 204 189 286 170 210 176 193 169 191 151 255 165 123 129 122 228 239 134 220 190 35 138 228 207 85 58 89 143 226 260 242 241 244 248 245 241 239 234 234 227 228 237 244 242 238 245 208 221 234 246 272 160 193 357 357 334 212 217 135 116 112 98 112 92 94 107 113
105 108 99 101 64 34 109 81 282 117 135 151 110 277 163 103 198 160 233 246 297 109 250 43 240 85 327 68 19 247 176 171 136 198 108 207 53 59 118 206 151 200 221 38 80 116 146 211 227 241 240 244 243 240 231 228 236 232 240 254 262 242 222 224 229 229 201 178 282 310 107 101 81 53 25 101 106 76 48 72 120 121 117 112 104 102 109
102 82 69 28 86 272 103 175 164 66 42 181 144 177 158 139 255 92 148 235 210 212 209 148 200 139 192 183 146 132 52 276 147 76 4 271 89 179 161 212 203 240 60 34 126 164 214 224 214 229 233 238 245 244 244 241 235 245 259 256 18 22 109 118 93 117 124 58 67 83 84 93 104 63 42 32 83 124 113 86 88 109 109 105 100 90 90
102 51 70 58 73 222 97 268 59 128 184 200 171 183 163 189 201 183 201 222 112 213 167 113 135 134 145 232 41 299 143 205 291 121 218 127 86 213 139 228 186 81 139 207 191 296 345 263 251 243 246 249 250 248 235 233 217 211 216 263 256 176 161 190 195 152 125 101 119 108 97 99 90 76 61 64 54 82 121 127 133 113 108 105 107 101 81
89 147 120 119 175 208 150 159 96 255 274 160 194 193 186 209 177 195 222 97 125 141 138 168 142 132 147 236 144 196 121 129 108 197 162 109 143 218 204 15 75 121 207 157 198 219 225 236 242 242 238 249 270 304 336 299 238 120 127 224 227 188 199 142 122 108 114 111 106 96 100 92 100 101 84 61 68 73 79 92 100 116 120 114 116 123 115
80 38 112 106 96 224 81 162 211 204 176 195 212 178 191 186 185 173 176 147 150 172 111 83 129 174 154 195 89 336 37 156 154 230 96 136 196 248 47 123 218 191 189 221 212 227 236 237 239 264 359 357 334 333 337 339 347 322 267 308 86 115 88 98 99 110 114 106 103 98 96 98 98 106 111 91 69 64 72 77 73 79 107 122 127 115 103
124 167 91 134 191 150 176 223 139 75 7 115 234 217 247 127 111 166 245 159 145 134 136 130 122 183 35 296 83 177 179 259 151 254 150 191 52 50 142 89 224 227 197 203 227 223 234 242 301 323 307 317 325 322 341 351 356 10 13 40 65 81 89 103 103 107 122 123 117 113 113 112 114 109 100 108 101 73 63 67 74 81 92 93 92 89 96
75 114 150 176 154 135 131 95 117 138 280 328 303 91 125 133 187 153 156 117 123 155 163 124 181 103 180 111 125 164 243 216 132 216 85 47 152 200 170 210 183 239 247 192 227 225 226 226 258 269 302 327 341 356 340 360 9 21 29 55 76 90 97 100 107 110 101 101 112 116 115 113 109 106 106 103 103 89 61 69 80 79 88 102 109 110 101
82 24 27 78 72 354 304 8 94 180 280 328 76 118 341 107 114 162 203 87 146 113 102 95 109 92 196 110 142 149 242 222 176 111 75 215 195 211 94 226 237 195 250 233 219 263 3 348 338 337 349 350 351 10 1 356 25 50 57 75 79 85 92 109 105 91 86 97 107 111 116 116 114 120 125 122 116 121 98 74 75 82 72 83 107 108 115
4 94 163 14 152 198 136 155 176 205 245 233 192 198 163 155 158 148 316 115 108 77 60 115 161 104 114 49 108 148 246 130 72 202 161 194 161 131 193 201 236 210 228 199 77 8 356 345 360 339 343 355 1 348 6 14 32 54 61 75 86 93 94 94 100 103 100 101 110 111 104 98 99 101 98 105 111 103 88 68 51 67 89 77 94 117 126
73 67 49 355 31 54 76 111 66 118 177 196 164 275 187 127 346 286 316 118 128 118 181 166 88 125 96 188 213 188 26 48 224 95 51 259 135 143 218 200 236 229 313 335 1 16 6 354 7 349 341 337 353 8 3 21 44 50 62 72 86 94 99 100 102 107 111 101 91 98 97 91 95 99 105 102 98 93 93 91 61 56 76 88 162 190 181